User: anonymous   Login
Location: Unspecified
(0.0000°N, 0.0000°E)
Time: 05:24:24
(UTC+00:00)
Language:

USA 274 - Orbit

View from above orbital plane
View from above orbital plane
View from above satellite
View from above satellite

Ground track
Ground track

The orbit data is extracted from the following two-line orbital elements,

1 42058U 17011A   17178.03097856 0.00000000  00000-0  00000-0 0    04
2 42058  63.4408 212.4025 0112000 179.3928 180.6072 13.40739091    06
Epoch (UTC): 27 June 2017 00:44:36
Eccentricity: 0.0112000
inclination: 63.4408°
perigee height: 1023 km
apogee height: 1190 km
right ascension of ascending node: 212.4025°
argument of perigee: 179.3928°
revolutions per day: 13.40739091
mean anomaly at epoch: 180.6072°
orbit number at epoch: 0

The dashed part of the orbit path shows where the satellite is in the earth's shadow,  

DLR